Location: Shenandoah County Park
(38.9356°N, 78.4524°W)
Time: 07:37:34
(UTC-04:00)

Vanguard 1 Rocket - Pass Details

Date: 07 February 2023
Orbit: 652 x 4223 km, 34.3° (Epoch: 26 March)

Event Time Altitude Azimuth Distance (km) Brightness Sun altitude
Rises 17:23:37 0° 282° (WNW) 6,184 12.7 2.5°
Reaches altitude 10° 17:27:19 10° 276° (W) 5,576 12.7 1.8°
Maximum altitude 17:44:28 45° 212° (SSW) 4,681 11.5 -1.3°
Drops below altitude 10° 18:07:58 10° 149° (SSE) 7,354 11.8 -5.7°
Sets 18:13:59 0° 144° (SE) 8,209 12.0 -6.8°
